Location: Berg
(48.4333°N, 13.9167°E)
Time: 04:56:50
(UTC+00:00)

Iridium 4 Rocket - Pass Details

Date: 18 September 2020
Orbit: 584 x 905 km, 86.9° (Epoch: 29 October)

Event Time Altitude Azimuth Distance (km) Brightness Sun altitude
Rises 17:41:01 0° 176° (S) 3,058 6.5 -6.0°
Reaches altitude 10° 17:43:11 10° 175° (S) 2,192 5.7 -6.3°
Maximum altitude 17:48:05 77° 90° (E) 789 3.5 -7.1°
Drops below altitude 10° 17:53:30 10° 5° (N) 2,421 6.2 -8.0°
Sets 17:56:00 0° 5° (N) 3,403 6.9 -8.4°
